Weather observations for the past three days for
Wichita - Wichita Dwight D. Eisenhower National Airport
Metric (Imperial)
Date Time (cdt) Wind (kph) Vis. (km) Weather Sky Cond. Temperature (ºC) Relative Humidity Wind Chill (°C) Heat Index (°C) Pressure Precipitation (cm)
Air Dwpt 6 hour altimeter (cm) sea level (mb) 1 hr 3 hr 6 hr
Max. Min.
06 07:53 Calm 16.09 Partly Cloudy SCT190 SCT230 25 18.9 69% 26 76.15 1013.4
06 06:53 Calm 16.09 Partly Cloudy SCT150 SCT190 23.3 18.9 27.2 22.2 76% 76.1 1012.7
06 05:53 Calm 16.09 Fair CLR 25 18.3 66% 26 76.07 1012.1
06 04:53 SE 6 16.09 Partly Cloudy SCT250 25 18.3 66% 26 76.05 1012.1
06 03:53 SE 6 16.09 A Few Clouds FEW250 26.7 18.3 60% 28 76.05 1011.9
06 01:53 Calm 16.09 A Few Clouds FEW250 26.1 18.3 62% 27 76.02 1011.6
05 23:53 SE 9 16.09 Partly Cloudy SCT130 SCT200 28.9 17.8 51% 30 76.02 1011.5
05 22:53 S 15 16.09 A Few Clouds FEW200 29.4 17.8 50% 30 76 1011.4
05 21:53 S 11 16.09 Partly Cloudy SCT200 30.6 17.8 46% 31 76 1011.2
05 20:53 S 11 16.09 Mostly Cloudy BKN200 31.1 17.8 45% 32 75.95 1010.6
05 19:53 S 11 16.09 Mostly Cloudy BKN200 33.3 17.2 38% 34 75.9 1010.0
05 18:53 SE 15 16.09 Partly Cloudy FEW090 SCT200 35.6 16.7 38.9 35.6 32% 36 75.9 1010.1
05 17:53 SE 15 G 31 16.09 Partly Cloudy FEW080 SCT200 37.8 16.7 29% 39 75.9 1009.9
05 16:53 S 15 G 35 16.09 Partly Cloudy SCT080 SCT200 38.3 16.7 28% 39 75.9 1009.8
05 15:53 SE 17 G 31 16.09 Partly Cloudy SCT080 37.8 17.2 30% 39 75.92 1010.3
05 12:53 S 20 16.09 A Few Clouds FEW080 FEW250 37.2 18.9 37.2 23.3 34% 39 76.07 1012.3
05 11:53 S 15 G 33 16.09 A Few Clouds FEW250 36.1 19.4 37% 38 76.12 1012.8
05 10:53 S 13 16.09 A Few Clouds FEW250 33.9 18.9 41% 36 76.1 1012.6
05 09:53 S 17 16.09 A Few Clouds FEW250 31.7 19.4 48% 33 76.1 1012.5
05 08:53 S 20 16.09 A Few Clouds FEW250 28.9 19.4 57% 30 76.07 1012.3
05 07:53 S 15 16.09 Partly Cloudy SCT250 25 19.4 71% 26 76.05 1012.0
05 06:53 S 9 16.09 Partly Cloudy SCT250 23.3 18.9 28.3 23.3 76% 76.02 1011.6
05 05:53 S 9 16.09 Fair CLR 24.4 18.9 72% 25 76 1011.5
05 04:53 S 11 16.09 A Few Clouds FEW250 24.4 19.4 74% 25 76.02 1011.6
05 03:53 S 9 16.09 A Few Clouds FEW250 25.6 19.4 69% 27 76.05 1011.8
05 02:53 S 11 16.09 A Few Clouds FEW250 26.1 19.4 67% 27 76.02 1011.7
05 01:53 S 17 16.09 Partly Cloudy SCT250 27.8 19.4 60% 29 76 1011.4
05 00:53 S 13 16.09 Partly Cloudy SCT250 28.3 19.4 35.6 28.3 59% 30 75.97 1011.0
04 23:53 SE 17 16.09 A Few Clouds FEW250 29.4 19.4 55% 31 76 1011.4
04 22:53 SE 17 16.09 Fair CLR 30.6 19.4 51% 32 76 1011.4
04 21:53 SE 17 16.09 Fair CLR 31.1 19.4 50% 33 76 1011.3
04 20:53 SE 15 16.09 A Few Clouds FEW250 31.7 19.4 48% 33 75.9 1010.1
04 19:53 SE 15 16.09 A Few Clouds FEW250 33.3 19.4 44% 35 75.87 1009.8
04 18:53 SE 22 16.09 A Few Clouds FEW065 FEW250 35.6 18.9 37.8 34.4 37% 38 75.87 1009.7
04 17:53 SE 22 16.09 A Few Clouds FEW065 FEW200 36.7 19.4 36% 39 75.87 1009.6
04 16:53 SE 24 16.09 A Few Clouds FEW080 FEW200 37.2 19.4 35% 40 75.87 1009.5
04 15:53 S 22 G 35 16.09 A Few Clouds FEW080 FEW200 37.2 19.4 35% 40 75.9 1009.9
04 14:53 S 17 G 39 16.09 A Few Clouds FEW080 FEW200 36.7 19.4 36% 39 75.92 1010.4
04 13:53 S 22 16.09 A Few Clouds FEW250 35.6 20 40% 38 75.97 1010.8
04 12:53 S 28 G 37 16.09 A Few Clouds FEW250 35 20.6 35 23.3 43% 38 76.02 1011.4
04 11:53 S 26 16.09 A Few Clouds FEW250 33.3 20.6 47% 36 76.05 1012.1
04 10:53 S 22 G 31 16.09 A Few Clouds FEW250 31.1 20.6 54% 34 76.05 1012.1
04 09:53 S 22 16.09 A Few Clouds FEW190 28.9 20.6 61% 31 76.07 1012.3
04 08:53 S 19 16.09 A Few Clouds FEW190 26.7 20.6 69% 28 76.07 1012.5
04 07:53 S 15 16.09 A Few Clouds FEW190 23.9 20.6 82% 24 76.05 1012.1
04 06:53 S 17 16.09 Fair CLR 23.3 20.6 27.8 23.3 85% 76 1011.2
04 05:53 S 13 16.09 A Few Clouds FEW250 23.3 20.6 85% 76 1011.3
04 04:53 S 15 16.09 A Few Clouds FEW250 24.4 20.6 79% 25 76 1011.1
04 03:53 S 15 16.09 A Few Clouds FEW250 25 20 74% 26 75.97 1010.8
04 02:53 S 17 16.09 A Few Clouds FEW250 25.6 20 71% 27 75.97 1010.9
04 01:53 S 19 16.09 A Few Clouds FEW250 26.7 20 67% 28 75.97 1010.9
04 00:53 S 20 16.09 Fair CLR 27.8 20 35.6 27.8 63% 29 75.97 1010.9
03 23:53 S 17 16.09 Fair CLR 27.8 20 63% 29 75.92 1010.5
03 22:53 S 17 16.09 Fair CLR 28.3 20.6 63% 30 75.92 1010.4
03 21:53 S 26 16.09 Fair CLR 30 20 55% 32 75.9 1009.9
03 20:53 S 20 16.09 A Few Clouds FEW200 31.1 19.4 50% 33 75.84 1009.3
03 19:53 S 17 16.09 A Few Clouds FEW150 33.3 18.3 41% 34 75.77 1008.3
03 18:53 S 28 G 41 16.09 A Few Clouds FEW150 35.6 17.8 38.3 35 35% 37 75.74 1007.9
03 17:53 S 35 G 46 16.09 A Few Clouds and Breezy FEW150 37.2 17.2 31% 38 75.72 1007.6
03 16:53 S 22 G 63 16.09 A Few Clouds FEW150 37.8 16.7 29% 39 75.74 1007.8
03 15:53 S 26 16.09 A Few Clouds FEW150 37.8 17.8 31% 39 75.77 1008.2
03 13:53 S 24 G 41 16.09 A Few Clouds FEW150 36.7 18.9 35% 39 75.87 1009.7
03 12:53 S 33 G 43 16.09 A Few Clouds and Breezy FEW150 35 19.4 35 24.4 40% 37 75.95 1010.6
03 11:53 S 30 16.09 A Few Clouds FEW120 33.3 20 46% 36 76 1011.4
03 10:53 S 30 16.09 A Few Clouds FEW120 FEW150 31.1 20 52% 33 76.02 1011.5
03 09:53 S 31 G 44 16.09 A Few Clouds FEW120 30 20 55% 32 76.02 1011.7
03 08:53 S 26 G 39 16.09 Partly Cloudy SCT120 27.8 20 63% 29 76.05 1011.9
Date Time (cdt) Wind (kph) Vis. (km) Weather Sky Cond. Air Dwpt Max. Min. Relative Humidity Wind Chill (°C) Heat Index (°C) altimeter (cm) sea level (mb) 1 hr 3 hr 6 hr
6 hour
Temperature (ºC) Pressure Precipitation (cm)